[[{"header":{"parameterUnit":"m.s-1","parameterCategory":1,"la1":30.2991,"la2":30.254,"lo1":-89.0895,"lo2":-89.0444,"dy":0.0017,"dx":0.0017,"nx":28,"ny":28,"refTime":"2025-06-10T03:00:00:Z","depth":0,"parameterNumber":2,"parameterNumberName":"U-component_of_WINDS"},"data":[0,0,0,0,0,0,0,0,0,0,0,0,0,0,0,0,0,0,0,0,0,0,0,0,0,0,0,0,0,0,0,0,0,0,0,0,0,0,0,0,0,0,0,0,0,0,0,0,0,0,0,0,0,0,0,0,0,0,1.104,1.1041,0,1.114,1.1141,1.1142,1.1134,1.1132,1.1131,1.1129,1.1235,1.1239,1.1244,0,0,0,0,0,0,0,0,0,0,0,0,0,1.0843,1.0847,1.104,1.1041,1.1042,1.114,1.1141,1.1143,1.1134,1.1132,1.113,1.1129,1.1234,1.1239,1.1244,0,0,0,0,0,0,0,0,0,0,0,0,0,1.0935,1.0848,1.104,1.105,1.1052,1.114,1.1141,1.1143,1.1135,1.1132,1.113,1.1128,1.1232,1.1238,1.1245,1.133,0,0,1.1264,1.1267,0,0,0,0,0,0,0,0,1.093,1.0942,1.1047,1.1049,1.1052,1.1122,1.1111,1.1206,1.1135,1.1103,1.1129,1.1127,1.12,1.1209,1.1233,1.1335,1.134,1.1265,1.1269,1.1271,1.1273,0,0,0,0,0,0,0,1.0923,1.0938,1.108,1.1049,1.1051,1.105,1.1061,1.1129,1.1163,1.1106,1.1105,1.1117,1.1201,1.1226,1.1235,1.1341,1.1265,1.127,1.1274,1.1277,1.1517,1.152,0,0,0,0,0,0,1.0914,1.0932,1.1076,1.1083,1.0984,1.1055,1.1067,1.1102,1.1162,1.1169,1.1119,1.1116,1.1217,1.1228,1.1239,1.1341,1.1271,1.1277,1.1281,1.1515,1.1518,1.1521,0,0,0,0,0,0,1.091,1.0927,1.1072,1.1007,1.1026,1.1061,1.11,1.1105,1.1131,1.1172,1.1179,1.1139,1.1215,1.123,1.1307,1.1345,1.128,1.1286,1.1512,1.1516,1.1519,1.1548,0,0,0,0,0,0,1.0904,1.0926,1.0958,1.1008,1.1029,1.1138,1.1103,1.1109,1.1141,1.1139,1.1193,1.12,1.1215,1.1297,1.1313,1.1353,1.1291,1.1509,1.1514,1.1518,1.1544,1.1552,1.156,0,0,0,0,0,1.0897,1.0963,1.096,1.0977,1.107,1.1141,1.1153,1.1168,1.1145,1.1178,1.1204,1.1198,1.1338,1.1305,1.1323,1.1365,1.1506,1.1512,1.1518,1.154,1.1551,1.1559,0,0,0,0,0,0,1.0918,1.097,1.0967,1.1051,1.1091,1.1139,1.1181,1.1178,1.1227,1.1223,1.124,1.1253,1.133,1.1356,1.1318,1.145,1.1419,1.1429,1.143,1.1441,1.1448,1.144,1.1296,0,0,0,0,0,1.0932,1.0984,1.1027,1.1097,1.1117,1.1145,1.1177,1.1184,1.1228,1.1245,1.1277,1.132,1.1374,1.1409,1.1461,1.1548,1.1559,1.1585,1.1593,1.16,1.1607,1.1654,1.1666,1.154,1.154,1.154,0,0,1.0962,1.0997,1.1029,1.1102,1.1134,1.1187,1.116,1.1218,1.1258,1.1254,1.1328,1.1354,1.1403,1.1484,1.1522,1.1508,1.1645,1.1607,1.1612,1.1616,1.1661,1.1673,1.1684,1.1544,1.1543,1.1542,0,0,1.1044,1.1076,1.1136,1.1169,1.1217,1.1236,1.125,1.1299,1.1315,1.1389,1.1387,1.1435,1.1528,1.1562,1.1592,1.1685,1.1681,1.1702,1.1743,1.1788,1.1798,1.1807,1.1839,1.185,1.171,1.171,1.171,0,1.1075,1.1155,1.1168,1.1226,1.1258,1.1256,1.1317,1.1349,1.1412,1.1434,1.1418,1.1532,1.1565,1.1655,1.1677,1.1702,1.1719,1.1695,1.1795,1.1804,1.1813,1.1844,1.1856,1.1712,1.1712,1.1711,1.1711,0,1.119,1.1245,1.1289,1.1348,1.1385,1.1445,1.1468,1.1504,1.1508,1.1529,1.1604,1.1643,1.1702,1.1725,1.1731,1.1815,1.1804,1.1791,1.176,1.1827,1.1856,1.1868,1.1715,1.1714,1.1713,1.1713,0,0,1.1288,1.1353,1.1368,1.1394,1.1447,1.1491,1.1551,1.1607,1.1637,1.1681,1.1731,1.1808,1.1796,1.183,1.184,1.188,1.1949,1.1862,1.1863,1.1875,1.2043,1.2051,1.2065,1.1947,1.195,1.1952,1.2039,0,1.1373,1.1477,1.149,1.1583,1.1633,1.1632,1.1683,1.1722,1.1742,1.1789,1.1812,1.1866,1.1847,1.1867,1.1906,1.1932,1.1983,1.1927,1.1994,1.1996,1.198,1.208,1.209,1.217,1.205,1.2052,1.2054,0,1.1487,1.1532,1.1629,1.1673,1.1695,1.1741,1.1793,1.1838,1.1881,1.1893,1.193,1.1935,1.1997,1.1964,1.2049,1.201,1.2039,1.2056,1.206,1.2066,1.2028,1.2088,1.2196,1.2208,1.2072,1.2071,1.2069,0,1.1547,1.1632,1.17,1.1723,1.1777,1.1809,1.1833,1.1875,1.1907,1.1953,1.1974,1.2028,1.2056,1.2098,1.2117,1.2091,1.2201,1.217,1.2212,1.2212,1.2234,1.2232,1.2347,1.2255,1.2255,1.2255,1.2254,0,1.164,1.1699,1.1727,1.1769,1.1835,1.185,1.1915,1.1939,1.1975,1.2022,1.2025,1.2069,1.2091,1.2139,1.2154,1.2222,1.2236,1.2247,1.225,1.2246,1.2244,1.2264,1.2259,1.2258,1.2257,1.2257,1.2256,0,1.1717,1.1739,1.1813,1.1857,1.187,1.1916,1.1955,1.1995,1.2015,1.2074,1.2089,1.2121,1.2177,1.22,1.2269,1.228,1.2357,1.2357,1.2341,1.2342,1.2382,1.2378,1.2513,1.2531,1.2428,1.2429,1.243,0,1.1775,1.182,1.1869,1.1899,1.1924,1.1974,1.2006,1.2023,1.2057,1.2109,1.2144,1.22,1.2245,1.2335,1.2364,1.2417,1.2417,1.2461,1.2425,1.2419,1.2416,1.2413,1.2417,1.2467,1.2468,1.2469,1.247,0,1.1875,1.1882,1.1929,1.1978,1.2016,1.2057,1.2096,1.2122,1.2145,1.2183,1.2239,1.2274,1.2344,1.2399,1.2453,1.2479,1.2479,1.2481,1.2493,1.2489,1.2478,1.2483,1.2358,1.2478,1.2477,1.2476,1.2476,1.2476,1.1943,1.1982,1.2022,1.2073,1.2104,1.214,1.218,1.2204,1.2251,1.2307,1.2315,1.2375,1.2417,1.249,1.2518,1.2566,1.2554,1.2573,1.2577,1.2581,1.2583,1.2471,1.2576,1.2576,1.2576,1.2575,1.2575,0,1.2042,1.2066,1.2113,1.2167,1.2207,1.2201,1.2245,1.2279,1.2331,1.2369,1.2413,1.2477,1.2531,1.2564,1.2618,1.2649,1.265,1.2663,1.266,1.2666,1.2591,1.2574,1.2661,1.2661,1.2661,1.2661,1.2661,1.2661,1.2097,1.2162,1.2175,1.2255,1.2281,1.2338,1.2363,1.2396,1.2427,1.2498,1.2541,1.2562,1.2598,1.2655,1.2703,1.2712,1.2731,1.2744,1.2751,1.268,1.2671,1.2663,1.2647,1.2748,1.2748,1.2822,1.2823,1.2824]},{"header":{"parameterUnit":"m.s-1","parameterCategory":1,"la1":30.2991,"la2":30.254,"lo1":-89.0895,"lo2":-89.0444,"dy":0.0017,"dx":0.0017,"nx":28,"ny":28,"refTime":"2025-06-10T03:00:00:Z","depth":0,"parameterNumber":3,"parameterNumberName":"V-component_of_WINDS"},"data":[0,0,0,0,0,0,0,0,0,0,0,0,0,0,0,0,0,0,0,0,0,0,0,0,0,0,0,0,0,0,0,0,0,0,0,0,0,0,0,0,0,0,0,0,0,0,0,0,0,0,0,0,0,0,0,0,0,0,2.2043,2.2044,0,2.2135,2.2136,2.2137,2.2116,2.2114,2.2113,2.2111,2.2201,2.2205,2.2209,0,0,0,0,0,0,0,0,0,0,0,0,0,2.1845,2.1849,2.2043,2.2044,2.2046,2.2135,2.2136,2.2137,2.2116,2.2114,2.2112,2.211,2.22,2.2204,2.2209,0,0,0,0,0,0,0,0,0,0,0,0,0,2.1933,2.185,2.2043,2.2046,2.2047,2.2134,2.2136,2.2138,2.2117,2.2114,2.2112,2.2109,2.2198,2.2204,2.221,2.2299,0,0,2.2228,2.2231,0,0,0,0,0,0,0,0,2.1929,2.1941,2.2044,2.2046,2.2047,2.2111,2.2099,2.2192,2.2117,2.209,2.2111,2.2108,2.2173,2.2181,2.2204,2.2303,2.2307,2.2229,2.2233,2.2235,2.2237,0,0,0,0,0,0,0,2.1922,2.1937,2.2079,2.2046,2.2048,2.2041,2.2051,2.2117,2.2145,2.2092,2.2091,2.2102,2.2173,2.2198,2.2206,2.2308,2.2229,2.2234,2.2238,2.224,2.2483,2.2485,0,0,0,0,0,0,2.1916,2.1932,2.2076,2.2082,2.198,2.2047,2.2058,2.2093,2.2144,2.215,2.2105,2.2101,2.2189,2.2199,2.2209,2.2315,2.2235,2.2241,2.2244,2.248,2.2483,2.2486,0,0,0,0,0,0,2.1911,2.1929,2.2073,2.2007,2.2024,2.2053,2.2093,2.2097,2.2121,2.2153,2.2158,2.2125,2.2187,2.22,2.2276,2.2318,2.2243,2.2249,2.2477,2.2481,2.2485,2.2529,0,0,0,0,0,0,2.1906,2.1927,2.1963,2.2008,2.2028,2.2141,2.2096,2.21,2.2132,2.2129,2.2174,2.2179,2.2186,2.2268,2.2282,2.2325,2.2254,2.2473,2.2478,2.2484,2.2524,2.2534,2.2543,0,0,0,0,0,2.1899,2.1971,2.1965,2.1982,2.2073,2.2143,2.2155,2.2163,2.2136,2.2171,2.2191,2.2177,2.2311,2.2276,2.2292,2.2337,2.247,2.2477,2.2483,2.252,2.2532,2.2543,0,0,0,0,0,0,2.193,2.1977,2.1971,2.206,2.2098,2.2139,2.2184,2.2176,2.2222,2.2216,2.2224,2.2234,2.2311,2.2332,2.2291,2.2424,2.2386,2.2396,2.2409,2.2421,2.243,2.2424,2.2259,0,0,0,0,0,2.1948,2.2002,2.204,2.2115,2.2134,2.2156,2.2187,2.219,2.2228,2.2244,2.227,2.2307,2.2357,2.239,2.2438,2.2527,2.2535,2.2565,2.2575,2.2583,2.2591,2.2638,2.2651,2.2507,2.2507,2.2507,0,0,2.1984,2.2016,2.205,2.2122,2.2151,2.2206,2.2169,2.2229,2.2268,2.2253,2.2326,2.2346,2.2388,2.247,2.2508,2.2489,2.2633,2.2591,2.2597,2.2601,2.2646,2.2659,2.2671,2.2512,2.2511,2.251,0,0,2.2078,2.2109,2.2174,2.2204,2.225,2.2263,2.2279,2.2321,2.2334,2.2408,2.2397,2.2443,2.253,2.256,2.2586,2.2689,2.2678,2.2704,2.2754,2.28,2.2811,2.2821,2.2857,2.2869,2.2713,2.2713,2.2713,0,2.2118,2.22,2.2208,2.2269,2.2299,2.2288,2.2353,2.2381,2.244,2.246,2.2439,2.2547,2.2574,2.2662,2.2687,2.2709,2.2726,2.2699,2.2809,2.2819,2.2828,2.2862,2.2876,2.2716,2.2715,2.2715,2.2715,0,2.2246,2.2303,2.235,2.2407,2.2443,2.2506,2.2521,2.2556,2.2555,2.2571,2.2645,2.2677,2.2731,2.2751,2.2751,2.2839,2.2826,2.2807,2.2769,2.2845,2.2877,2.289,2.272,2.2719,2.2718,2.2717,0,0,2.2364,2.2423,2.244,2.2465,2.2514,2.2557,2.2617,2.2671,2.27,2.274,2.279,2.2862,2.2844,2.2874,2.2877,2.2917,2.2994,2.2892,2.2893,2.2909,2.3092,2.3106,2.3121,2.2987,2.2989,2.2991,2.3088,0,2.2462,2.257,2.2578,2.2675,2.2727,2.2715,2.2768,2.2802,2.2817,2.2862,2.2878,2.2929,2.2902,2.292,2.2958,2.2977,2.3031,2.297,2.3032,2.3034,2.3022,2.3138,2.3154,2.3244,2.3101,2.3103,2.3104,0,2.2591,2.2635,2.2738,2.2777,2.2799,2.2846,2.2894,2.2938,2.2975,2.2983,2.3016,2.3013,2.3072,2.3032,2.3114,2.3072,2.3097,2.311,2.3113,2.312,2.3074,2.3147,2.3273,2.3286,2.3124,2.3123,2.3121,0,2.2666,2.2751,2.2823,2.2845,2.2892,2.2925,2.2946,2.2981,2.3012,2.3054,2.3073,2.3121,2.3147,2.3183,2.3192,2.3161,2.3273,2.3233,2.328,2.328,2.3305,2.3303,2.3436,2.3321,2.3321,2.3321,2.332,0,2.2775,2.2838,2.2857,2.2901,2.2971,2.2978,2.3046,2.3064,2.3095,2.3141,2.3134,2.3177,2.3186,2.323,2.3237,2.3303,2.3315,2.3322,2.3323,2.3323,2.3322,2.334,2.3334,2.3324,2.3323,2.3323,2.3322,0,2.2871,2.2887,2.2964,2.3002,2.3013,2.3062,2.3094,2.3136,2.3149,2.3208,2.3222,2.3242,2.3294,2.3306,2.3368,2.3372,2.345,2.3445,2.3438,2.3438,2.3484,2.3479,2.3633,2.3653,2.3525,2.3526,2.3527,0,2.294,2.2988,2.3031,2.3062,2.3084,2.3134,2.3166,2.3173,2.3206,2.3251,2.3286,2.3337,2.3379,2.3461,2.3481,2.3527,2.3523,2.3574,2.353,2.3528,2.3524,2.3521,2.3525,2.3582,2.3584,2.3585,2.3586,0,2.306,2.3064,2.311,2.3159,2.3196,2.3235,2.3271,2.3296,2.3308,2.3345,2.3398,2.343,2.3493,2.3543,2.3589,2.3609,2.3599,2.3599,2.3613,2.3613,2.3607,2.361,2.3461,2.3596,2.3595,2.3594,2.3594,2.3593,2.3144,2.3185,2.3222,2.3273,2.3301,2.3335,2.3375,2.3393,2.3438,2.349,2.3491,2.3549,2.3583,2.3644,2.3666,2.371,2.3694,2.3714,2.3719,2.3723,2.3727,2.36,2.3718,2.3718,2.3718,2.3718,2.3717,0,2.3263,2.3285,2.3332,2.3383,2.3423,2.341,2.3449,2.3483,2.3534,2.3567,2.3607,2.3667,2.3715,2.3738,2.3785,2.3816,2.3813,2.3828,2.3826,2.383,2.3739,2.3723,2.383,2.383,2.383,2.383,2.383,2.383,2.333,2.3399,2.3408,2.349,2.3512,2.3569,2.3592,2.3622,2.3648,2.3716,2.3756,2.3771,2.3799,2.3848,2.389,2.3896,2.3913,2.3931,2.3934,2.3848,2.3837,2.3826,2.3811,2.3935,2.3935,2.4022,2.4022,2.4023]}]]